Location: Buisson
(44.2787°N, 4.9969°E)
Time: 02:35:03
(UTC+00:00)

IRS-1D - Pass Details

Date: 18 April 2021
Orbit: 740 x 816 km, 98.6° (Epoch: 08 May)

Event Time Altitude Azimuth Distance (km) Brightness Sun altitude
Rises 01:52:10 0° 16° (NNE) 3,254 7.8 -27.2°
Reaches altitude 10° 01:54:29 10° 19° (NNE) 2,334 6.9 -26.9°
Maximum altitude 01:59:37 67° 102° (ESE) 852 3.7 -26.4°
Enters shadow 02:00:12 62° 141° (SE) 888 3.6 -26.3°
